Weather in Vakhrushevo

Russia / Yaroslavl Oblast     57°18′05″N   39°35′14″E
temp.,
°C
wind,
m/s
gust,
m/s
humid.,
%
clouds,
%
prec.,
mm/h
press.,
hPa
HPBL,
m
25 january, tue
tue2500:00−16ssw379712 0.0 103083
03:00−15ssw399610 0.0 1028118
06:00−15ssw399510 0.0 1026120
09:00−15ssw410955 0.0 1023147
12:00−9ssw5128976 0.0 1021300
15:00−9ssw51189100 0.0 1018313
18:00−11s4994100 0.0 1016221
21:00−10ssw4895100 0.9 1015266
26 january, wed
wed2600:00−9ssw2496100 1.4 1014162
03:00−8wsw1196100 2.2 101481
06:00−9nw1197100 0.4 101412
09:00−10nw359788 0.6 101598
12:00−8nnw479397 0.1 1016264
15:00−8nnw249593 0.2 1016135
18:00−13nw229991 0.1 101733
21:00−18nw11100100 0.1 10179
27 january, thu
thu2700:00−20wnw11100100 0.1 10179
03:00−21wsw11100100 0.1 10179
06:00−21s11100100 0.1 101611
09:00−18s2310082 0.1 101539
12:00−12s3595100 0.0 1013162
15:00−9sse4993100 0.0 1011313
18:00−10sse51195100 0.0 1010322
21:00−9s6139198 0.0 1008417
28 january, fri
fri2800:00−10s6139191 0.0 1007400
03:00−10s61393100 0.2 1006419
06:00−10sse61193100 0.1 1005352
09:00−11sse6129390 0.1 1005330
12:00−10sse6129496 0.0 1004367
15:00−8sse61293100 0.1 1004405
18:00−8se61293100 0.1 1003402
21:00−8se51194100 0.3 1003394
29 january, sat
sat2900:00−8se4995100 0.4 1003364
03:00−8se3795100 0.8 1003258
06:00−9ese259681 0.3 1003122
09:00−10e119799 0.6 100411
12:00−7nw119289 0.2 1004194
15:00−6nw249377 0.4 1004352
18:00−8wnw379670 0.1 1005181
21:00−12wnw379768 0.2 1005106